Вернуться в каталог

COSMOS 1275 DEB

АктивенPO
NORAD 13483·DEBRIS·🇷🇺 Russia

Запущен Jun 4, 1981 с Plesetsk Cosmodrome

Loading…

Ближайшие Пролёты (ближайшие 24 часа)

TLE

СвежийSource: Space-Track

Эпоха: Sep 14, 2026, 07:33 UTC

1 13483U 81053GD  26257.31460904  .00001697  00000-0  74705-3 0  9994
2 13483  82.9236  14.1391 0010235 177.2886 212.2634 14.22941541260089

Отслеживайте COSMOS 1275 DEB в реальном времени с AllMySat

Download on the App Store